Find Gals 2

NORAD ID: 23717 Int'l Des: 1995-063 Owner: INFK/LAND Country: RU operational
HEOCIRCULAR

Live Position

Loading 3D Globe...

About Gals 2

Description loading...

Upcoming Passes

Passes for default location (London). Set your location on the main map for personalized predictions.

Altitude History

Loading altitude history...

Two-Line Element Set

1 23717U 95063A 26109.71691706 -.00000135 00000-0 00000-0 0 9998
2 23717 14.4656 3.0407 0009305 336.1828 213.3259 0.99876601111048
Epoch: Apr 19, 2026 • Age: 32 hours

Current Status

Altitude 35863.5 km
Velocity 3.07 km/s
Sub-Earth Point -10.61°S, 85.61°E
Launch Date Nov 17, 1995
Age 30.4 years
Type other

Technical Details

Classification Payload
Mass 2600.00 kg
Dry Mass 2400.00 kg
Total Mass 2600.00 kg
Length 6.60 m
Diameter 4.10 m
Span 10.00 m
Shape Cyl + 2 Pan
Manufacturer NPOPMR
Bus Type Gals
Phase Status Unknown Active Status
Owner/State INFK/LAND/RU

Most Searched